Total_Precipitation_Accumulation
1.87 1.78 2.62 3.98 4.18 3.48 2.98 2.49 1.86 1.49 1.03 0.85 0.80 0.93 1.21 1.57 1.86 2.17 2.45 2.35 1.56 1.27 1.26 1.92 2.67 2.58 2.35 2.31 2.27 2.21 2.19 2.14 1.92 1.78 1.62 1.48 1.32 1.25 1.26 1.29 1.27 1.20 1.10 1.13 1.30 1.50 1.57 1.55 1.57
1.48 2.14 3.16 4.38 3.89 3.12 2.87 2.42 1.84 1.26 0.79 0.62 0.55 0.65 0.78 0.75 0.81 1.36 2.36 2.40 1.35 1.05 1.09 1.45 2.16 2.19 2.13 2.10 2.03 1.99 1.86 1.74 1.75 1.75 1.56 1.43 1.31 1.28 1.32 1.34 1.26 1.21 1.11 1.14 1.25 1.36 1.43 1.46 1.52
1.67 2.79 3.75 3.92 3.15 2.92 2.84 2.21 1.51 0.86 0.55 0.50 0.49 0.52 0.60 0.86 1.00 1.50 2.14 1.72 1.07 0.88 1.05 1.58 2.08 2.03 2.02 1.97 1.79 1.79 1.66 1.54 1.52 1.55 1.46 1.46 1.35 1.26 1.24 1.29 1.30 1.28 1.21 1.17 1.22 1.27 1.33 1.41 1.45
1.88 3.00 3.32 3.05 2.75 2.33 1.96 1.60 1.19 0.99 0.64 0.38 0.36 0.48 0.55 0.93 1.22 1.41 1.45 1.16 0.98 1.00 1.04 1.37 1.80 1.82 1.82 1.74 1.66 1.65 1.55 1.53 1.44 1.36 1.36 1.40 1.36 1.30 1.23 1.31 1.27 1.22 1.25 1.29 1.31 1.35 1.43 1.42 1.39
2.40 3.05 2.91 2.52 2.31 1.90 1.43 1.12 0.96 0.97 0.77 0.44 0.32 0.53 0.79 1.18 1.31 1.16 1.03 0.85 0.83 0.90 0.88 1.09 1.60 1.65 1.63 1.60 1.60 1.64 1.58 1.52 1.39 1.31 1.35 1.47 1.41 1.34 1.27 1.34 1.30 1.24 1.21 1.27 1.29 1.36 1.41 1.34 1.34
2.66 2.71 2.70 2.38 2.27 1.87 1.44 1.03 0.81 0.76 0.62 0.42 0.34 0.55 0.88 1.19 1.37 1.22 1.06 1.05 0.99 1.00 0.91 1.01 1.56 1.69 1.58 1.57 1.52 1.57 1.62 1.56 1.42 1.32 1.29 1.35 1.34 1.26 1.25 1.23 1.29 1.27 1.23 1.26 1.29 1.31 1.35 1.23 1.20
2.55 2.50 2.31 1.96 2.10 2.27 1.67 1.03 0.87 0.84 0.67 0.46 0.34 0.59 0.90 1.15 1.17 1.12 1.19 1.26 1.26 1.32 1.24 1.27 1.43 1.49 1.58 1.56 1.47 1.64 1.75 1.64 1.44 1.29 1.24 1.19 1.21 1.19 1.17 1.17 1.27 1.27 1.24 1.24 1.27 1.29 1.33 1.24 1.14
2.02 2.07 1.91 1.92 2.15 2.36 1.56 1.03 0.84 0.78 0.68 0.35 0.30 0.57 0.87 0.86 0.88 1.02 1.17 1.20 1.20 1.26 1.23 1.27 1.38 1.38 1.39 1.44 1.60 1.77 2.09 1.98 1.60 1.35 1.18 1.12 1.06 1.08 1.18 1.15 1.21 1.29 1.33 1.35 1.36 1.39 1.36 1.33 1.22
1.86 2.18 2.31 2.40 2.41 2.11 1.39 1.20 0.93 0.62 0.55 0.40 0.37 0.47 0.56 0.56 0.71 0.84 0.97 0.99 0.98 0.97 1.02 1.12 1.20 1.23 1.30 1.27 1.46 1.82 2.17 2.21 1.82 1.48 1.33 1.09 0.79 0.79 1.01 1.17 1.33 1.45 1.51 1.58 1.61 1.61 1.52 1.39 1.25
1.82 2.15 2.12 1.87 1.56 1.30 1.14 1.04 0.89 0.76 0.77 0.60 0.50 0.48 0.50 0.54 0.75 0.84 0.85 0.88 0.84 0.76 0.72 0.76 0.80 0.91 0.98 1.00 1.27 1.55 1.61 1.81 1.54 1.46 1.33 1.16 1.09 1.02 0.88 1.00 1.35 1.59 1.60 1.64 1.69 1.71 1.50 1.17 0.95
1.60 1.65 1.49 1.37 1.04 0.84 0.84 0.76 0.66 0.67 0.76 0.66 0.62 0.48 0.52 0.59 0.68 0.72 0.69 0.68 0.69 0.68 0.66 0.61 0.62 0.68 0.81 0.93 1.12 1.31 1.46 1.61 1.59 1.53 1.47 1.48 1.45 1.10 0.96 1.03 1.15 1.30 1.36 1.29 1.37 1.35 1.13 0.95 0.88
1.54 1.28 1.16 1.09 0.76 0.75 0.77 0.64 0.56 0.54 0.52 0.39 0.48 0.43 0.47 0.54 0.57 0.56 0.57 0.59 0.57 0.59 0.70 0.65 0.51 0.53 0.61 0.70 0.89 1.06 1.26 1.44 1.47 1.27 1.19 1.33 1.37 1.19 1.05 1.19 1.25 1.30 1.32 1.38 1.39 1.31 1.15 0.93 0.87
1.47 1.40 1.15 1.01 0.77 0.75 0.69 0.63 0.53 0.45 0.41 0.33 0.38 0.49 0.54 0.60 0.58 0.52 0.50 0.54 0.54 0.59 0.68 0.71 0.62 0.56 0.59 0.65 0.73 0.77 1.05 1.21 1.33 1.37 1.15 1.27 1.31 1.26 1.13 1.08 1.27 1.25 1.28 1.32 1.40 1.42 1.31 1.20 1.08
1.35 1.26 1.04 0.94 0.84 0.74 0.68 0.60 0.55 0.46 0.41 0.37 0.43 0.55 0.58 0.62 0.63 0.58 0.53 0.49 0.46 0.55 0.64 0.67 0.69 0.67 0.67 0.68 0.69 0.67 0.73 0.81 0.90 0.85 0.81 1.00 1.13 1.15 1.14 1.01 1.08 1.18 1.32 1.52 1.60 1.46 1.40 1.33 1.28
1.08 1.19 1.26 1.05 0.86 0.69 0.69 0.80 0.60 0.52 0.50 0.48 0.50 0.53 0.58 0.55 0.56 0.54 0.49 0.46 0.46 0.52 0.59 0.65 0.71 0.76 0.77 0.78 0.83 0.79 0.73 0.75 0.73 0.68 0.68 0.78 0.90 0.99 1.10 1.10 1.09 1.12 1.32 1.57 1.75 1.63 1.52 1.36 1.36
1.14 1.33 1.63 1.31 1.09 0.85 0.93 1.08 0.57 0.51 0.56 0.53 0.49 0.47 0.46 0.44 0.45 0.48 0.48 0.47 0.49 0.50 0.49 0.52 0.55 0.63 0.67 0.73 0.79 0.88 0.88 0.86 0.82 0.83 0.78 0.73 0.86 0.99 1.12 1.18 1.14 1.13 1.32 1.57 1.80 1.87 1.84 1.73 1.63
1.29 1.28 1.29 1.26 1.09 0.90 0.88 0.83 0.50 0.48 0.57 0.58 0.51 0.47 0.43 0.33 0.33 0.38 0.38 0.40 0.44 0.44 0.38 0.39 0.43 0.45 0.48 0.53 0.62 0.75 0.83 0.89 0.95 0.95 0.95 0.95 1.00 1.03 1.15 1.33 1.36 1.35 1.46 1.57 1.62 1.75 1.76 1.80 1.79
0.97 0.90 0.93 1.05 0.89 0.86 0.81 0.59 0.43 0.46 0.51 0.54 0.57 0.52 0.45 0.31 0.26 0.25 0.29 0.33 0.35 0.36 0.36 0.37 0.40 0.38 0.36 0.40 0.51 0.64 0.71 0.77 0.95 1.01 1.05 1.33 1.45 1.25 1.21 1.35 1.36 1.41 1.60 1.67 1.79 2.00 1.93 1.82 1.91
0.67 0.62 0.74 0.76 0.64 0.77 0.72 0.53 0.43 0.40 0.38 0.40 0.46 0.48 0.44 0.33 0.22 0.15 0.13 0.19 0.24 0.23 0.21 0.27 0.31 0.37 0.36 0.32 0.37 0.51 0.63 0.75 0.88 1.05 1.10 1.32 1.44 1.36 1.37 1.38 1.40 1.44 1.53 1.60 1.79 2.15 2.17 1.98 1.87
0.62 0.64 0.69 0.65 0.58 0.66 0.72 0.58 0.45 0.36 0.32 0.33 0.36 0.39 0.38 0.30 0.20 0.14 0.11 0.13 0.18 0.21 0.16 0.18 0.21 0.30 0.37 0.39 0.45 0.58 0.77 0.89 0.99 1.14 1.20 1.29 1.32 1.33 1.25 1.41 1.51 1.48 1.62 1.70 1.88 2.17 2.38 2.14 1.95
0.56 0.63 0.59 0.62 0.67 0.61 0.70 0.75 0.57 0.39 0.34 0.34 0.33 0.34 0.32 0.23 0.19 0.16 0.14 0.12 0.11 0.15 0.12 0.15 0.23 0.36 0.53 0.68 0.92 1.17 1.46 1.60 1.50 1.37 1.44 1.53 1.62 1.58 1.51 1.59 1.72 1.64 1.69 1.80 1.85 1.94 2.37 2.51 2.26
0.64 0.43 0.41 0.50 0.72 0.74 0.61 0.80 0.59 0.40 0.39 0.40 0.36 0.30 0.27 0.23 0.21 0.18 0.15 0.14 0.13 0.19 0.25 0.34 0.45 0.61 0.78 0.98 1.20 1.46 1.71 1.90 1.91 1.93 1.97 1.95 1.90 1.79 1.67 1.68 1.74 1.74 1.81 1.79 1.67 1.83 2.25 2.71 2.73
0.51 0.43 0.41 0.47 0.64 0.62 0.56 0.59 0.51 0.42 0.48 0.49 0.47 0.41 0.36 0.33 0.31 0.30 0.28 0.25 0.25 0.36 0.49 0.59 0.81 0.97 1.11 1.17 1.26 1.48 1.58 1.66 1.78 1.92 1.99 2.00 1.92 1.80 1.65 1.59 1.67 1.73 1.81 1.81 1.87 2.06 2.35 2.63 2.88
0.42 0.50 0.53 0.58 0.66 0.62 0.43 0.44 0.53 0.44 0.48 0.58 0.54 0.47 0.42 0.38 0.36 0.38 0.41 0.41 0.44 0.65 0.88 1.00 1.10 1.20 1.19 1.17 1.19 1.31 1.46 1.55 1.65 1.81 1.87 1.82 1.69 1.65 1.58 1.55 1.54 1.51 1.58 1.68 1.88 2.14 2.28 2.46 2.69
0.40 0.60 0.75 0.76 0.68 0.49 0.28 0.34 0.45 0.36 0.34 0.42 0.45 0.42 0.38 0.31 0.30 0.35 0.43 0.55 0.74 0.98 1.19 1.32 1.31 1.22 1.07 1.05 1.12 1.17 1.32 1.49 1.55 1.56 1.58 1.57 1.50 1.43 1.44 1.45 1.41 1.32 1.31 1.43 1.64 1.90 1.96 2.07 2.30
0.35 0.44 0.65 0.71 0.60 0.43 0.32 0.46 0.49 0.36 0.27 0.24 0.24 0.26 0.31 0.34 0.40 0.42 0.47 0.65 0.94 1.19 1.42 1.68 1.65 1.42 1.20 1.14 1.19 1.22 1.32 1.40 1.40 1.31 1.32 1.35 1.31 1.25 1.17 1.19 1.22 1.20 1.19 1.23 1.37 1.53 1.57 1.66 1.88
0.31 0.33 0.34 0.51 0.44 0.40 0.35 0.41 0.37 0.26 0.20 0.19 0.22 0.27 0.36 0.42 0.51 0.59 0.69 0.78 1.00 1.22 1.54 1.82 1.87 1.66 1.49 1.41 1.34 1.35 1.27 1.20 1.13 1.04 1.04 1.06 1.09 1.02 0.98 1.03 1.14 1.20 1.14 1.10 1.20 1.34 1.36 1.47 1.64
0.25 0.27 0.30 0.52 0.58 0.54 0.40 0.41 0.34 0.22 0.17 0.19 0.30 0.35 0.42 0.50 0.52 0.67 0.91 1.12 1.36 1.31 1.44 1.68 1.62 1.53 1.50 1.51 1.49 1.39 1.25 1.13 1.09 1.02 1.01 0.97 1.01 0.94 0.94 0.96 0.96 0.99 0.99 1.03 1.17 1.32 1.39 1.42 1.49
0.23 0.26 0.28 0.38 0.41 0.56 0.64 0.54 0.31 0.27 0.27 0.32 0.41 0.44 0.49 0.56 0.60 0.74 0.91 1.06 1.24 1.35 1.35 1.40 1.39 1.39 1.35 1.28 1.22 1.10 0.90 0.80 0.81 0.83 0.81 0.75 0.78 0.74 0.75 0.71 0.75 0.88 0.89 0.89 1.04 1.12 1.14 1.27 1.36
0.26 0.29 0.31 0.48 0.50 0.50 0.71 0.73 0.41 0.40 0.44 0.53 0.60 0.64 0.68 0.69 0.73 0.83 0.90 1.04 1.11 1.12 1.15 1.23 1.16 1.14 1.10 1.00 0.90 0.77 0.63 0.58 0.62 0.64 0.60 0.52 0.54 0.50 0.55 0.59 0.58 0.77 0.94 0.97 1.00 1.01 0.99 1.10 1.20